Showing default

BIROS, 41604

Orbit data source: Space-Track

BIROS, 41604 is a payload satellite owned by DLR (DE) in SSO that was launched on Wed, 22 Jun 2016 UTC via a PSLV-XL launch vehicle from the Sirharikota (SRI). Payloads include a variety of satellites, spacecraft, and rockets equipped with specific instruments for various scientific and technological missions. These include communications satellites like Starlink; space stations such as the ISS; scientific satellites like the Hubble; Earth observation satellites from companies like Planet Labs, Umbra, and HawkEye 360; GPS; miniature CubeSats for education and research; and military/defense satellites.

Loading next visibility...
BIROS details
Identifier
41604, 2016-040F
Orbit
SSO
Last TLE update20 hours ago
Origin
Flag of DEDLR (DE / GER)
ManufacturerASTFN/KTHR
MissionOperational Civil Imaging
Bus & MotorTET-X, Unknown motor
Mass130 kg wet, 130 kg dry
Launch date (UTC)
2016-06-22 (9 years ago)
Launch vehicle
PSLV-XL
Launch site
Sirharikota (SRI)
Object type
Payload
Rocket body
Debris
Shape & HBRBox + 2 Pan, 1.8 m
Radar Cross Section0.799 m², Medium (>0.1 m² and < 1m²)

Expand to show TLE details & history

TLE from 20 hours ago
0 BIROS
1 41604U 16040F   24360.58898813  .00035904  00000-0  66204-3 0  9993
2 41604  97.1074  24.6260 0008973  73.3650 286.8586 15.49004936473699
Epoch: 2024-12-25T14:08Z
Definitive object data (Epoch: 2024-12-25T14:08:08.574Z)
Latitude-0.00004°
Longitude78.00971°
Altitude421.009 km
Speed7.66 km/s
True Right ascension01h 38m 30s
True Declination0° 00' 00"
Sunlit
Object was in daylight at TLE epoch
Visualization TLE readout
Latitude-45.06739°
Longitude85.96825°
Altitude439.57 km
Speed7.645 km/s
Apparent Right ascension23h 47m 18s
Apparent Declination-48° 15' 03"
Sunlit
Object is in daylight
Visualization observer readout
Local Sidereal Time09:26:50
Azimuth239.823° WSW
Elevation-63.698°
Doppler factor1
Orbital elements
Apogee altitude422.647 km
Perigee altitude410.453 km
Semi-major axis6,794.687 km
Eccentricity0.0008973
Inclination97.1074°
RAAN24.626°
Arg. of periapsis73.365°
True anomaly286.76016°
Mean anomaly286.8586°
Eccentric anomaly286.80939°
Mean motion3.87515 °/min
BSTAR0.00066204
Orbital period92.9 mins
Loading maneuver chart data...
Loading historical data...
Loading historical data...
Loading historical data...
Loading historical data...
Loading historical data...
Loading historical data...
Loading historical data...

BIROS Visibility forecast

Observer location: undefined°, undefined

Span
Click to sort rows by Start time (UTC) header in descending order
Start Az.
Max El. time (UTC)
Max El. Az.
Max El.
End time (UTC)
End Az.
4 mins2024-12-26 13:57:42.754Z50.517° ENE2024-12-26 13:59:42.754Z92.092° ESE17.824°2024-12-26 14:01:42.754Z136.251° SSE
4 mins2024-12-27 01:56:42.754Z170.618° S2024-12-27 01:57:42.754Z180.61° SSW43.715°2024-12-27 02:00:42.754Z347.385° N
|